sat.trackr.live / text

‹ back to catalog

STARLINK-11676 [DTC]

NORAD 63757 · 2025-089G

PAYLOAD ACTIVE UNKNOWN

§ Identity

Operator
Country
US
Launch date
2025-04-29
Launch site
AFETR
Launch vehicle
Mass (kg)
RCS (m²)

Purposes: comms

External: N2YO · Heavens-Above · Gunter

§ Orbital elements

Epoch: 2026-05-24T12:02:52.353312Z

Period
91.67 min
Inclination
43.0021°
Eccentricity
0.0001582
Mean motion
15.70822442 rev/d
Perigee alt
355.5 km
Apogee alt
357.6 km
Semi-major
6,734.7 km
B*
1.4914e-3
RAAN
194.8371°
Arg perigee
268.9560°
Mean anomaly
91.1127°
Rev number
6,195

§ Raw data

STARLINK-11676 [DTC]1 63757U 25089G   26144.50199483  .00195344  00000+0  14914-2 0  99942 63757  43.0021 194.8371 0001582 268.9560  91.1127 15.70822442 61952

JSON: /api/v1/satellites/63757 · /tle

For live sub-satellite position, see the globe view (requires WebGL).

§ Visibility from observer

Set your observer location to see the next 7 days of passes ≥ 10°. The values pass through the URL so the page stays shareable.

No JS? Fill the form by hand. The geolocation button needs JavaScript.